Tracking 30101 objects as of 14-Dec-2024
HD Live streaming from Space Station
objects crossing your sky now

ANIK A2 (TELESAT 2)

Track ANIK A2 (TELESAT 2) now!
ANIK A2 (TELESAT 2) is classified as:


NORAD ID: 6437
Int'l Code: 1973-023A
Perigee: 35,888.8 km
Apogee: 35,968.1 km
Inclination: 8.2 °
Period: 1,443.0 minutes
Semi major axis: 42299 km
RCS: 3.1458 m2 (large)
Launch date: April 20, 1973
Source: Canada (CA)
Launch site: AIR FORCE EASTERN TEST RANGE (AFETR)
Your satellite tracking list
Your tracking list is empty




NASA's NSSDC Master Catalog

Two Line Element Set (TLE):
1  6437U 73023A   24349.42697649  .00000102  00000-0  00000+0 0  9996
2  6437   8.2086 300.5383 0009374  54.3005 114.4771  0.99793253114837
Source of the keplerian elements: AFSPC